SV1IW Athens current weather conditions

sailwx.info

Wind from 330

Air temperature 11.7° C
Dewpoint 4.4° C

Last reported at 2017-Jan-17 20:30 UTC.
Time now 2017-Jan-17 21:30 UTC

Location: N 37°58' E 023°43'.
View on Google Maps.

See reports from other nearby stations

  
Tides and Currents Weather Stations Pressure Air Temp Water Temp Dewpoint Dewpoint Depression Visibility Wind Speed Wind Dir Waves Ship Positions
date/time (UTC)wind fromknots sea level pressurealtimeterstation pressurevisibilityair tempwater tempwave heightnotes
2017-Jan-17 20:30 330 11.7
2017-Jan-17 20:00 244 11.7
2017-Jan-17 19:30 016 0 gusting 5 11.7
2017-Jan-17 19:00 052 2 gusting 5 11.7
2017-Jan-17 18:30 143 2 gusting 5 11.7
2017-Jan-17 18:00 122 2 gusting 5 12.2
2017-Jan-17 01:30 001 2 gusting 5 10.0
2017-Jan-17 01:00 018 2 gusting 4 10.0
2017-Jan-17 00:30 004 1 gusting 2 10.6
2017-Jan-17 00:00 10.6
2017-Jan-16 23:30 236 10.6
2017-Jan-16 23:00 236 11.1
2017-Jan-16 22:30 236 0 gusting 2 11.1
2017-Jan-16 22:00 273 1 gusting 5 11.7
2017-Jan-16 21:30 197 2 gusting 6 11.7
2017-Jan-16 21:00 247 4 gusting 8 11.7
2017-Jan-16 20:30 214 5 gusting 8 11.7
2017-Jan-16 20:00 191 4 gusting 7 11.1
2017-Jan-16 19:30 176 4 gusting 6 11.1
2017-Jan-16 19:00 156 4 gusting 6 11.1
2017-Jan-16 18:30 257 3 gusting 12 11.1
2017-Jan-16 18:00 271 2 gusting 10 12.2
2017-Jan-16 17:30 179 5 gusting 10 12.8
2017-Jan-16 17:00 107 3 gusting 7 12.8
2017-Jan-16 16:30 088 4 gusting 7 12.8
2017-Jan-16 16:00 050 2 gusting 7 12.8
2017-Jan-16 15:30 051 2 gusting 6 12.8
2017-Jan-16 15:00 104 2 gusting 6 13.3
2017-Jan-16 14:30 090 4 gusting 7 13.3
2017-Jan-16 14:00 159 2 gusting 7 13.9
2017-Jan-16 13:30 188 2 gusting 6 14.4
2017-Jan-16 13:00 249 2 gusting 6 12.8
2017-Jan-16 12:30 039 2 gusting 5 13.3
2017-Jan-16 12:00 202 4 gusting 6 14.4
2017-Jan-16 00:30 001 5 gusting 10 9.4
2017-Jan-16 00:00 014 5 gusting 7 9.4
2017-Jan-15 23:30 353 2 gusting 5 9.4
2017-Jan-15 23:00 349 2 gusting 8 9.4
2017-Jan-15 22:30 302 10.6